Change the Weather History Date:

Wednesday, March 12, 2014

  Actual Average (KHRO) Record (KHRO)
Temperature  
Mean Temperature 47 °F 48 °F  
Max Temperature 55 °F 59 °F 89 °F (1967)
Min Temperature 37 °F 37 °F -10 °F (1948)
Degree Days  
Heating Degree Days 18 18  
Month to date heating degree days 231  
Since 1 July heating degree days 3403  
Cooling Degree Days 0 0  
Month to date cooling degree days 0  
Year to date cooling degree days 0  
Moisture  
Dew Point 25 °F    
Average Humidity 49    
Maximum Humidity 76    
Minimum Humidity 21    
Precipitation  
Precipitation 0.00 in 0.12 in 0.95 in (1986)
Month to date precipitation 1.35  
Year to date precipitation 6.55  
Snow  
Snow 0.00 in 0.10 in 5.00 in (1968)
Month to date snowfall 1.2  
Since 1 July snowfall 10.4  
Snow Depth -    
Sea Level Pressure  
Sea Level Pressure 29.99 in    
Wind  
Wind Speed 12 mph (NNW)    
Max Wind Speed 18 mph    
Max Gust Speed 34 mph    
Visibility 10 miles    
Events      
T = Trace of Precipitation, MM = Missing Value Source: NWS Daily Summary

Daily Weather History Graph

Daily Weather History Graph

Search for Another Location

Airport or City:

Trip Planner

Search our weather history database for the weather conditions in past years. The results will help you decide how hot, cold, wet, or windy it might be!

Date:

Astronomy

Mar. 12, 2014 Rise Set
Actual Time 7:25 AM CDT 7:14 PM CDT
Civil Twilight 6:59 AM CDT 7:40 PM CDT
Nautical Twilight 6:29 AM CDT 8:10 PM CDT
Astronomical Twilight 5:59 AM CDT 8:40 PM CDT
Moon 3:50 PM CDT (3/12) 4:51 AM CDT (3/12)
Length of Visible Light 12h 41m
Length of Day
11h 49m
Waxing Gibbous, 85% of the Moon is Illuminated
Mar 12
Waxing Gibbous
Mar 16
Full
Mar 23
Last Quarter
Mar 30
New
Apr 7
First Quarter

Hourly Weather History & Observations

Time (CDT) Temp. Windchill Dew Point Humidity Pressure Visibility Wind Dir Wind Speed Gust Speed Precip Events Conditions
12:53 AM 57.0 °F - 45.0 °F 64% 29.55 in 8.0 mi WNW 12.7 mph 29.9 mph N/A   Partly Cloudy
1:19 AM 53.6 °F - 44.6 °F 72% 29.61 in 6.0 mi WNW 13.8 mph 32.2 mph N/A   Haze
1:53 AM 48.9 °F - 41.0 °F 74% 29.67 in 6.0 mi NW 18.4 mph 31.1 mph N/A   Haze
2:53 AM 45.0 °F 38.9 °F 37.9 °F 76% 29.73 in 10.0 mi NW 12.7 mph 28.8 mph N/A   Overcast
3:53 AM 43.0 °F 36.8 °F 34.0 °F 71% 29.78 in 9.0 mi NNW 11.5 mph 34.5 mph N/A   Overcast
4:53 AM 39.9 °F 31.4 °F 30.0 °F 68% 29.83 in 10.0 mi NNW 16.1 mph 31.1 mph 0.00 in   Overcast
5:53 AM 39.9 °F 31.4 °F 30.0 °F 68% 29.88 in 10.0 mi NNW 16.1 mph 25.3 mph N/A   Overcast
6:53 AM 39.0 °F 30.3 °F 28.9 °F 67% 29.93 in 10.0 mi NNW 16.1 mph 27.6 mph N/A   Overcast
7:53 AM 37.9 °F 30.0 °F 28.0 °F 68% 29.97 in 10.0 mi NNW 12.7 mph 23.0 mph N/A   Mostly Cloudy
8:18 AM 37.4 °F 28.9 °F 26.6 °F 65% 29.99 in 10.0 mi NNW 13.8 mph 27.6 mph N/A   Scattered Clouds
8:37 AM 37.4 °F 29.3 °F 26.6 °F 65% 30.01 in 10.0 mi NNW 12.7 mph 24.2 mph N/A   Mostly Cloudy
8:46 AM 39.2 °F 31.6 °F 26.6 °F 61% 30.02 in 10.0 mi NNW 12.7 mph 24.2 mph N/A   Mostly Cloudy
8:53 AM 39.0 °F 30.6 °F 26.1 °F 60% 30.02 in 10.0 mi NW 15.0 mph 27.6 mph N/A   Mostly Cloudy
9:53 AM 39.9 °F 33.4 °F 24.1 °F 53% 30.06 in 10.0 mi NNW 10.4 mph 26.5 mph N/A   Partly Cloudy
10:53 AM 43.0 °F 36.4 °F 19.9 °F 40% 30.09 in 10.0 mi NNW 12.7 mph 28.8 mph N/A   Clear
11:53 AM 46.0 °F 41.0 °F 18.0 °F 33% 30.09 in 10.0 mi NNW 10.4 mph 33.4 mph N/A   Clear
12:53 PM 48.0 °F - 15.1 °F 27% 30.11 in 10.0 mi NNW 16.1 mph 33.4 mph N/A   Clear
1:53 PM 50.0 °F - 12.9 °F 23% 30.10 in 10.0 mi NNW 13.8 mph 27.6 mph N/A   Clear
2:53 PM 51.1 °F - 14.0 °F 23% 30.10 in 10.0 mi NW 11.5 mph 25.3 mph N/A   Clear
3:53 PM 52.0 °F - 12.9 °F 21% 30.10 in 10.0 mi North 11.5 mph 25.3 mph N/A   Clear
4:53 PM 52.0 °F - 14.0 °F 22% 30.11 in 10.0 mi NNW 10.4 mph 26.5 mph N/A   Clear
5:53 PM 51.1 °F - 15.1 °F 24% 30.11 in 10.0 mi NW 11.5 mph 20.7 mph N/A   Clear
6:53 PM 48.9 °F - 17.1 °F 28% 30.12 in 10.0 mi NNW 6.9 mph 18.4 mph N/A   Clear
7:53 PM 46.9 °F - 19.0 °F 33% 30.15 in 10.0 mi NW 4.6 mph - N/A   Clear
8:53 PM 39.9 °F - 21.0 °F 47% 30.17 in 10.0 mi Calm Calm - N/A   Clear
9:53 PM 43.0 °F - 19.0 °F 38% 30.17 in 10.0 mi Calm Calm - N/A   Clear
10:53 PM 39.9 °F - 19.9 °F 45% 30.17 in 10.0 mi Calm Calm - N/A   Clear
11:53 PM 42.1 °F 40.2 °F 19.9 °F 41% 30.17 in 10.0 mi WSW 3.5 mph - N/A   Clear